Weather in Calella de Palafrugell

Spain     41°53′33″N   3°11′13″E
temp.,
°C
wind,
m/s
gust,
m/s
humid.,
%
clouds,
%
prec.,
mm/h
press.,
hPa
HPBL,
m
7 march, sun
sun701:00+9nw238570 0.0 1024119
04:00+9nw338998 0.0 1022111
07:00+9nw229195 0.0 102265
10:00+12nnw22834 0.0 1021238
13:00+14ene337340 0.0 1020593
16:00+13ese337794 0.0 1018495
19:00+11e238798 0.0 1017195
22:00+11ene239199 0.1 1018191
8 march, mon
mon801:00+11n239099 0.7 1017175
04:00+11nne4688100 0.7 1016350
07:00+11ne4688100 0.9 1015417
10:00+12nne6785100 0.4 1016652
13:00+12nne7977100 0.5 1016671
16:00+13ne797032 0.0 1015653
19:00+12nne5107957 0.0 1015377
22:00+11nnw61373100 0.0 1017459
9 march, tue
tue901:00+10nnw5976100 0.0 1017383
04:00+10n71174100 0.0 1017518
07:00+9nnw6107480 0.0 1017501
10:00+12nnw9136413 0.0 1018956
13:00+14n910586 0.0 1019942
16:00+14n69590 0.0 1017977
19:00+11wsw467837 0.1 1018209
22:00+9nw338926 0.1 1020131
10 march, wed
wed1001:00+8nw338313 0.1 102189
04:00+8nnw33780 0.0 1021114
07:00+7wnw22810 0.0 102167
10:00+11wnw22690 0.0 1023202
13:00+13se33610 0.0 1023691
16:00+13s67690 0.0 1022592
19:00+11ssw587517 0.0 1023311
22:00+9ssw457535 0.0 1025170
11 march, thu
thu1101:00+9sw347830 0.0 1025119
04:00+8wsw227821 0.0 102467
07:00+8wsw227344 0.0 102360
10:00+13wsw12575 0.0 1024201
13:00+16s456212 0.0 1023568
16:00+15ssw7107240 0.0 1021404
19:00+13ssw7127666 0.0 1020248
22:00+12sw5884100 0.0 1021147